User: anonymous   Login
Location: Caltech
(34.1382°N, 118.1253°W)
Time: 03:17:22
(UTC-08:00)
Language:

Cosmos 2360 Rocket - Orbit

View from above orbital plane
View from above orbital plane
View from above satellite
View from above satellite

Ground track
Ground track

The orbit data is extracted from the following two-line orbital elements,

1 25407U 98045B   17058.07117389  .00000008  00000-0  28183-4 0  9995
2 25407  71.0095 272.8375 0007423 358.2864   1.8232 14.15756336960594
Epoch (UTC): 27 February 2017 01:42:29
Eccentricity: 0.0007423
inclination: 71.0095°
perigee height: 834 km
apogee height: 845 km
right ascension of ascending node: 272.8375°
argument of perigee: 358.2864°
revolutions per day: 14.15756336
mean anomaly at epoch: 1.8232°
orbit number at epoch: 96059

The dashed part of the orbit path shows where the satellite is in the earth's shadow,  

DLR